sat.trackr.live / text

‹ back to catalog

YAHSAT 1B

NORAD 38245 · 2012-016A

PAYLOAD ACTIVE UNKNOWN

§ Identity

Operator
Country
UAE
Launch date
2012-04-23
Launch site
TYMSC
Launch vehicle
Mass (kg)
RCS (m²)
10.00

Purposes: comms

External: N2YO · Heavens-Above · Gunter

§ Orbital elements

Epoch: 2026-05-25T03:58:08.464800Z

Period
1,436.12 min
Inclination
0.0890°
Eccentricity
0.0002549
Mean motion
1.00270429 rev/d
Perigee alt
35,776.2 km
Apogee alt
35,797.7 km
Semi-major
42,165.1 km
B*
0.0000e+0
RAAN
91.0255°
Arg perigee
348.9400°
Mean anomaly
269.9307°
Rev number
4,537

§ Raw data

YAHSAT 1B1 38245U 12016A   26145.16537575  .00000124  00000+0  00000+0 0  99942 38245   0.0890  91.0255 0002549 348.9400 269.9307  1.00270429 45371

JSON: /api/v1/satellites/38245 · /tle

For live sub-satellite position, see the globe view (requires WebGL).

§ Visibility from observer

Set your observer location to see the next 7 days of passes ≥ 10°. The values pass through the URL so the page stays shareable.

No JS? Fill the form by hand. The geolocation button needs JavaScript.